User: anonymous   Login
Location: Ariel
(45.9570°N, 122.5700°W)
Time: 12:15:11
(UTC-07:00)
Language:

SR - Orbit

View from above orbital plane
View from above orbital plane
View from above satellite
View from above satellite

Ground track
Ground track

The orbit data is extracted from the following two-line orbital elements,

1    46U 60007B   19236.89237449 -.00000074  00000-0  86154-5 0  9991
2    46  66.6905 130.5342 0211353 350.9252   8.8058 14.49239565 95981
Epoch (UTC): 24 August 2019 21:25:01
Eccentricity: 0.0211353
inclination: 66.6905°
perigee height: 578 km
apogee height: 878 km
right ascension of ascending node: 130.5342°
argument of perigee: 350.9252°
revolutions per day: 14.49239565
mean anomaly at epoch: 8.8058°
orbit number at epoch: 9598

The dashed part of the orbit path shows where the satellite is in the earth's shadow,  

DLR